Flag for U.S.A. Weather past 2 weeks in Aurora, Colorado, U.S.A.

Now
65 °F

Passing clouds.


Feels Like: 65 °F
Forecast: 63 / 86 °F
Wind: 6 mph from South

Location: Buckley Air Force Base

Current Time: Sep 3, 2015 at 5:29:27 AM

Latest Report: Sep 3, 2015 at 4:58 AM


Visibility: 10 mi

Pressure: 29.80 "Hg (24.57 "Hg at 1647m altitude)

Humidity: 44%

Dew point: 43 °F

Location of AuroraLocation

Historic Weather in Aurora — Graph

°F

Aurora temperature yesterday

Maximum temperature yesterday: 89 °F (at 2:58 PM)
Minimum temperature yesterday: 63 °F (at 6:58 AM)
Average temperature yesterday: 76 °F

Past Weeks' High & Low Weather Summary

 TemperatureHumidityPressure
High94 °F (Aug 25, 3:58 PM)100% (Aug 19, 3:58 AM)30.21 "Hg (Aug 19, 3:58 AM)
Low45 °F (Aug 23, 5:58 AM)11% (Aug 21, 12:58 PM)29.65 "Hg (Aug 21, 4:58 PM)
Average71 °F41%29.93 "Hg
* Reported Aug 19 3:58 AM — Sep 3 3:58 AM, Aurora, Weather by CustomWeather, © 2015

Note: Actual official high and low records may vary slightly from our data, if they occured in-between our weather recording intervals... More about our weather records

Advertising

Aurora weather history for previous 24 hours

 ConditionsComfort  
Time TempWeatherWind HumidityBarometerVisibility
3:58 AM
Thu, Sep 3
67 °FPassing clouds.7 mph43%29.79 "Hg10 mi
2:58 AM66 °FPassing clouds.9 mph44%29.77 "Hg10 mi
1:58 AM67 °FPassing clouds.9 mph43%29.78 "Hg10 mi
12:58 AM66 °FPassing clouds.7 mph45%29.80 "Hg10 mi
11:58 PM
Wed, Sep 2
70 °FPassing clouds.8 mph40%29.81 "Hg10 mi
10:58 PM70 °FPassing clouds.9 mph36%29.82 "Hg10 mi
9:58 PM74 °FPartly cloudy.6 mph30%29.83 "Hg10 mi
8:58 PM73 °FPartly cloudy.12 mph32%29.83 "Hg10 mi
7:58 PM76 °FBroken clouds.8 mph27%29.81 "Hg10 mi
6:58 PM84 °FBroken clouds.2 mph18%29.79 "Hg10 mi
5:58 PM87 °FBroken clouds.7 mph16%29.78 "Hg10 mi
4:58 PM86 °FBroken clouds.9 mph17%29.80 "Hg10 mi
3:58 PM88 °FBroken clouds.3 mph14%29.79 "Hg10 mi
2:58 PM89 °FScattered clouds.10 mph14%29.81 "Hg10 mi
1:58 PM88 °FBroken clouds.6 mph15%29.83 "Hg10 mi
12:58 PM86 °FBroken clouds.7 mph18%29.86 "Hg10 mi
11:58 AM84 °FBroken clouds.7 mph19%29.89 "Hg10 mi
10:58 AM80 °FBroken clouds.1 mph24%29.91 "Hg10 mi
9:58 AM77 °FBroken clouds.3 mph27%29.92 "Hg10 mi
8:58 AM75 °FScattered clouds.7 mph33%29.92 "Hg10 mi
7:58 AM69 °FScattered clouds.9 mph42%29.92 "Hg10 mi
6:58 AM63 °FPassing clouds.7 mph49%29.90 "Hg10 mi
5:58 AM64 °FPassing clouds.10 mph49%29.86 "Hg10 mi
Weather by CustomWeather, © 2015

See weather overviewHow to use our weather pages